Regional Weather Roundup
Issued by NWS Little Rock, AR

Home | Current Version | Previous Version | Graphics & Text | Print | Product List | Glossary On
Versions: 1 2 3 4 5 6 7 8 9 10 11 12 13 14 15 16 17 18 19 20 21 22 23 24 25 26 27 28 29 30 31 32 33 34 35 36 37 38 39 40 41 42 43 44 45 46 47 48 49 50
000
ASUS44 KLZK 180005
RWRLZK

WEATHER ROUNDUP FOR ARKANSAS
NATIONAL WEATHER SERVICE LITTLE ROCK AR
700 PM CDT WED SEP 17 2014

NOTE: "FAIR" INDICATES FEW OR NO CLOUDS BELOW 12,000 FEET WITH NO
SIGNIFICANT WEATHER AND/OR OBSTRUCTIONS TO VISIBILITY.

ARZ001-003-010-029-180100-
NORTHWEST ARKANSAS

CITY           SKY/WX    TMP DP  RH WIND       PRES   REMARKS
FAYETTEVILLE   LGT RAIN  66  32  28 CALM      29.94R
6HR MIN TEMP:  65; 6HR MAX TEMP:  83; 6HR PCP:  0.87;

FORT SMITH     PTCLDY    81  72  74 E13       29.87S HX  85
6HR MIN TEMP:  79; 6HR MAX TEMP:  86;

HARRISON       CLOUDY    67  65  93 N5        29.90F
6HR MIN TEMP:  63; 6HR MAX TEMP:  72; 6HR PCP:  1.72;

BENTONVILLE    CLOUDY    66  63  88 S7        29.92F
6HR MIN TEMP:  64; 6HR MAX TEMP:  86; 6HR PCP:  1.06;

ROGERS         CLOUDY    66  63  90 S10       29.92F
6HR MIN TEMP:  64; 6HR MAX TEMP:  85; 6HR PCP:  1.53;

SILOAM SPGS    CLOUDY    66  61  82 SE13      29.93F THUNDER
6HR MIN TEMP:  66; 6HR MAX TEMP:  88; 6HR PCP:  0.58;

HIGHFILL       MOCLDY    66  66 100 S9        29.91F
6HR MIN TEMP:  64; 6HR MAX TEMP:  87; 6HR PCP:  0.57;

SPRINGDALE     MOCLDY    68  66  94 S17       29.92F FOG
$$

ARZ004-005-016-180100-
NORTH CENTRAL ARKANSAS

CITY           SKY/WX    TMP DP  RH WIND       PRES   REMARKS
BATESVILLE     CLOUDY    66  63  88 CALM      29.90S
6HR MIN TEMP:  66; 6HR MAX TEMP:  68;

FLIPPIN        CLOUDY    64  61  88 CALM      29.89S
6HR MIN TEMP:  64; 6HR MAX TEMP:  70;

MTN HOME       CLOUDY    64  64 100 CALM      29.89F FOG
6HR MIN TEMP:  62; 6HR MAX TEMP:  66; 6HR PCP:  0.43;

$$

ARZ040-041-180100-
WEST CENTRAL ARKANSAS

CITY           SKY/WX    TMP DP  RH WIND       PRES   REMARKS
MENA           MOCLDY    81  73  78 CALM      29.92S HX  85
MOUNT IDA      PTCLDY    79  73  82 CALM      29.90F
6HR MIN TEMP:  78; 6HR MAX TEMP:  86;

$$

ARZ009-017-025-026-028-180100-
NORTHEAST ARKANSAS

CITY           SKY/WX    TMP DP  RH WIND       PRES   REMARKS
CORNING          N/A     63  63 100 E7        29.93F FOG
JONESBORO      MOCLDY    65  64  97 NE5       29.92S
6HR MIN TEMP:  63; 6HR MAX TEMP:  67; 6HR PCP:  0.16;

NEWPORT        CLOUDY    67  63  87 S6        29.92R
6HR MIN TEMP:  65; 6HR MAX TEMP:  68; 6HR PCP: TRACE;

WALNUT RIDGE   MOCLDY    64  61  88 CALM      29.92S
6HR MIN TEMP:  61; 6HR MAX TEMP:  64; 6HR PCP:  0.18;

BLYTHEVILLE    MOCLDY    65  63  93 NE3       29.95R
6HR MIN TEMP:  65; 6HR MAX TEMP:  68; 6HR PCP: TRACE;

$$

ARZ022-023-033-042-044-180100-
CENTRAL ARKANSAS

CITY           SKY/WX    TMP DP  RH WIND       PRES   REMARKS
LITTLE ROCK    MOCLDY    81  67  62 SE5       29.92F
6HR MIN TEMP:  79; 6HR MAX TEMP:  86;

N LITTLE ROCK  MOCLDY    79  71  74 S6        29.92F
6HR MIN TEMP:  78; 6HR MAX TEMP:  85;

JACKSONVILLE   PTCLDY    79  70  73 S6        29.89F
6HR MIN TEMP:  79; 6HR MAX TEMP:  84;

SEARCY         CLOUDY    69  66  90 S7        29.89F
6HR MIN TEMP:  69; 6HR MAX TEMP:  78;

HOT SPRINGS    PTCLDY    82  70  66 E8        29.92S HX  86
6HR MIN TEMP:  81; 6HR MAX TEMP:  86;

RUSSELLVILLE   PTCLDY    76  69  79 CALM      29.89F
CLINTON        FAIR      68  66  94 SW3       29.89F FOG
$$

ARZ036-180100-
EAST ARKANSAS

CITY           SKY/WX    TMP DP  RH WIND       PRES   REMARKS
WEST MEMPHIS   CLOUDY    70  64  81 S6        29.90F
6HR MIN TEMP:  70; 6HR MAX TEMP:  76;

$$

ARZ050-053-066-070-073-180100-
SOUTHWEST ARKANSAS

CITY           SKY/WX    TMP DP  RH WIND       PRES   REMARKS
ARKADELPHIA    FAIR      81  75  81 CALM      29.91S HX  87
6HR MIN TEMP:  81; 6HR MAX TEMP:  88;

CAMDEN         PTCLDY    82  70  65 NE3       29.90S HX  86
TEXARKANA      MOCLDY    81  75  82 CALM      29.89S HX  87
6HR MIN TEMP:  81; 6HR MAX TEMP:  89;

EL DORADO      PTCLDY    81  72  74 NE3       29.91R HX  85
6HR MIN TEMP:  81; 6HR MAX TEMP:  90;

DE QUEEN       MOCLDY    81  74  79 SE3       29.87F HX  86
6HR MIN TEMP:  78; 6HR MAX TEMP:  88;

$$

ARZ056-057-069-180100-
SOUTHEAST ARKANSAS

CITY           SKY/WX    TMP DP  RH WIND       PRES   REMARKS
PINE BLUFF     CLEAR     81  69  67 N3        29.92S
6HR MIN TEMP:  81; 6HR MAX TEMP:  88;

STUTTGART      PTCLDY    79  68  69 E7        29.93F
6HR MIN TEMP:  79; 6HR MAX TEMP:  84;

MONTICELLO     CLEAR     81  70  69 CALM      29.91S
6HR MIN TEMP:  81; 6HR MAX TEMP:  90;


$$




USA.gov is the U.S. government's official web portal to all federal, state and local government web resources and services.